User: anonymous
Location: Unspecified
(0.0000°N, 0.0000°E)
Time: 06:03:15
(UTC+02:00)
Language:

NOAA 12 - Orbit

View from above orbital plane
View from above orbital plane
View from above satellite
View from above satellite

Ground track
Ground track

The orbit data is extracted from the following two-line orbital elements,

1 21263U 91032A   14257.50554934  .00000070  00000-0  47862-4 0  4154
2 21263 098.6590 283.2968 0012999 341.8359 180.3046 14.25679498213287
Epoch (UTC): 14 September 2014 12:07:59
Eccentricity: 0.0012999
inclination: 98.6590°
perigee height: 797 km
apogee height: 815 km
right ascension of ascending node: 283.2968°
argument of perigee: 341.8359°
revolutions per day: 14.25679498
mean anomaly at epoch: 180.3046°
orbit number at epoch: 21328

The dashed part of the orbit path shows where the satellite is in the earth's shadow,  

DLR